DELTA 1 DEB, 10652

Orbit data source: Space-Track

DELTA 1 DEB, 10652 is space debris in LEO originally from a launch on Thu, 29 Jul 1976 UTC launched from the Air Force Western Test Range (AFWTR). Debris objects in space refer to the collection of defunct objects orbiting the Earth. Examples of debris include non-operational satellites, rocket bodies, and fragments generated from explosions, collisions, or faulty payload assembly.

Loading next visibility...
Identifier
10652, 1976-077N
Orbit
LEO
Country
Flag of USUS
Related business
Manufacturer
Unknown
Mission
Spacecraft
Bus & Motor
Unknown
Mass
Unknown
Launch date (UTC)
1976-07-29 (50 years ago)
Launch vehicle
Unknown
Launch site
Air Force Western Test Range (AFWTR)
Object type
Payload
Rocket body
Debris
Shape & HBR
Unknown shape, 0.1 m
Radar Cross Section
Small (<0.1 m²)

Expand to show TLE details & history
Last TLE update: 12 hours ago

TLE from 12 hours ago
0 DELTA 1 DEB
1 10652U 76077N   26048.63923370 -.00000970  00000-0 -10807-1 0  9999
2 10652 102.8751 299.9210 0249126  87.2627 275.6894 11.97686409137720
Epoch: 2026-02-17T15:20Z
TLE epoch observation values (Epoch: 2026-02-17T15:20:29.791Z)
Latitude
-0.00004°
Longitude
-77.81946°
Altitude
1,678.737 km
Speed
7.042 km/s
True Right ascension
19h 59m 41s
True Declination
0° 00' 00"
Sunlit
Object was in daylight at epoch
Visualization orbit readout
Latitude
Unknown
Longitude
Unknown
Altitude
Unknown
Speed
Unknown
Apparent Right ascension
Unknown
Apparent Declination
Unknown
Sunlit
N/A
Visualization observer readout
Local Sidereal Time
06:05:32
Azimuth
Unknown
Elevation
Unknown
Doppler factor
Unknown
Orbital elements
Apogee altitude
1,889.888 km
Perigee altitude
1,487.945 km
Semi-major axis
8,067.053 km
Eccentricity
0.02491
Inclination
102.8751°
RAAN
299.921°
Arg. of periapsis
87.2627°
True anomaly
272.84107°
Mean anomaly
275.6894°
Eccentric anomaly
274.26597°
Mean motion
2.99551 °/min
Orbital period
120.18 mins
BSTAR
-0.010807
Loading maneuver chart data...
Computing Atmospheric mass density...
Loading historical data...
Loading historical data...
Loading historical data...
Loading historical data...
Loading historical data...
Loading historical data...
Loading historical data...

Documentation

Showing up to 5 results
|